Regional Weather Roundup
Issued by NWS Wakefield, VA

Home | Current Version | Previous Version | Graphics & Text | Print | Product List | Glossary On
Versions: 1 2 3 4 5 6 7 8 9 10 11 12 13 14 15 16 17 18 19 20 21 22 23 24 25 26 27 28 29 30 31 32 33 34 35 36 37 38 39 40 41 42 43 44 45 46 47 48 49 50
000
ASUS41 KAKQ 061015
RWRAKQ

REGIONAL WEATHER ROUNDUP
NATIONAL WEATHER SERVICE WAKEFIELD VA
600 AM EDT MON JUL 06 2015

Note: "fair" indicates few or no clouds below 12,000 feet with no
significant weather and/or obstructions to visibility. * = Denotes
station may not report precipitation (e.g., rain,snow,etc.),
thunder or fog.

VAZ042-051-052>054-056-061100-
NORTHERN VIRGINIA

CITY           SKY/WX    TMP DP  RH WIND       PRES   REMARKS
WASH NATIONAL  CLOUDY    77  72  84 CALM      30.11R
DULLES         CLOUDY    72  71  97 E3        30.11R FOG
FORT BELVOIR   CLOUDY    73  71  96 SE1       30.10R FOG
QUANTICO       CLOUDY    75  71  87 SE9       30.11R
FREDERICKSBRG* CLOUDY    75  75 100 CALM      30.09S
STAFFORD*      CLOUDY    71  70  97 CALM      30.14R FOG
WARRENTON      CLOUDY    72  72 100 CALM      30.10S FOG
CULPEPER*      CLOUDY    69  69 100 CALM      30.11R FOG
MANASSAS*      CLOUDY    73  73 100 CALM        N/A
LEESBURG*      CLOUDY    73  73 100 S7        30.12R FOG
WINCHESTER     MOCLDY    72  70  94 E3        30.10S FOG
FRONT ROYAL*   PTSUNNY   68  66  94 CALM      30.09S
LURAY*         FOG       70  70 100 CALM      30.11S VSB 3/4
$$

VAZ048-049-060>072-079>083-061100-
CENTRAL AND SOUTH CENTRAL VIRGINIA

CITY           SKY/WX    TMP DP  RH WIND       PRES   REMARKS
RICHMOND       FOG       72  70  94 CALM      30.11R VSB 3/4
CHESTERFIELD*  NOT AVBL
PETERSBURG*    PTCLDY    70  70 100 CALM      30.11R
HANOVER        CLOUDY    70  70 100 E3        30.12R
TAPPAHANNOCK*  MOCLDY    73  71  92 CALM      30.12R
QUINTON*       NOT AVBL
CHARLOTTSVILLE CLOUDY    70  68  93 CALM      30.10R
GORDONSVILLE*  CLOUDY    70  70 100 CALM      30.10R FOG
ORANGE*        FOG       70  70 100 CALM      30.11S VSB 1/2
LOUISA*        CLOUDY    72  70  94 CALM      30.10R
BUMPASS*       FAIR      69  69  99 CALM      30.10S
FARMVILLE*     CLOUDY    70  70 100 CALM      30.09R
CREWE*         PTSUNNY   68  67  96 CALM      30.09S
FORT PICKETT*  FAIR      67  66  97 CALM      30.10S
CHASE CITY*    FAIR      71  71 100 CALM      30.10S
CLARKSVILLE*   FAIR      68  68 100 S3        30.10R
SOUTH HILL*    PTCLDY    67  67  99 CALM      30.16R
LAWRENCEVILLE* NOT AVBL
EMPORIA*         N/A     68  68 100 CALM      30.13R
$$

VAZ088>098-061100-
SOUTHEAST VIRGINIA

CITY           SKY/WX    TMP DP  RH WIND       PRES   REMARKS
NORFOLK        MOCLDY    73  70  90 SE3       30.12R
VIRGINIA BEACH MOCLDY    74  69  85 E5        30.12R
NORFOLK NAVAL  MOCLDY    72  70  93 SE3       30.13R
WEST POINT*    CLOUDY    73  71  91 CALM      30.13R
SALUDA*        FAIR      72  71  96 SE5       30.11R
NEWPORT NEWS   CLOUDY    73  71  93 S3        30.12R
LANGLEY AFB    CLOUDY    73  71  96 S6        30.10R
FORT EUSTIS    CLOUDY    73 N/A N/A SE5       30.10R
WILLIAMSBURG*  CLOUDY    75  75 100 SE6       30.12R
HR EXEC AP*    FAIR      72  68  88 CALM      30.14R
FRANKLIN*      MOCLDY    70  69  98 CALM      30.12R
WAKEFIELD      MOCLDY    72  69  90 CALM      30.11R
$$

VAZ020-022-025-037-045-061100-
WEST CENTRAL AND SOUTHWEST VIRGINIA

CITY           SKY/WX    TMP DP  RH WIND       PRES   REMARKS
STAUNTON*      CLOUDY    71  70  96 CALM      30.12R FOG
WAYNESBORO*    CLOUDY    68  67  97 SE7       30.11R
HOT SPRINGS VA LGT RAIN  64  64 100 S7        30.17S VSB<1/4
LYNCHBURG      CLOUDY    69  68  96 S6        30.11R
DANVILLE       CLOUDY    70  68  93 E3        30.09S
SOUTH BOSTON*  PTSUNNY   68  67  96 MISG      30.10R
MARTINSVILLE   CLOUDY    70  70 100 S3        30.11R FOG
ROANOKE        CLOUDY    69  69 100 SE8       30.11R
BLACKSBURG     CLOUDY    66  66 100 CALM      30.15S FOG
DUBLIN*        FOG       67  67 100 CALM      30.13S VSB 3/4
MARION*        DRIZZLE   66  65  95 CALM      30.16R
HILLSVILLE*    RAIN      64  64 100 CALM      30.13R VSB 3/4
RICHLANDS*     CLOUDY    64  64 100 SW3       30.14R FOG
WISE*          CLOUDY    64  64 100 W5        30.16R
ABINGDON*      CLOUDY    67  67 100 W8        30.13R FOG
$$

MDZ021>025-VAZ099-100-061100-
SOUTHERN MARYLAND AND THE DELMARVA PENINSULA

CITY           SKY/WX    TMP DP  RH WIND       PRES   REMARKS
PATUXENT RIVER CLOUDY    75  72  90 SE6       30.10R
BAY BRIDGE APT NOT AVBL
LEONARDTOWN    CLOUDY    72  70  94 CALM      30.12S
DOVER          CLOUDY    73  73 100 E5        30.11R
GEORGETOWN     CLOUDY    72  71  97 SE3       30.13R
EASTON         CLOUDY   N/A N/A N/A CALM      30.15R
CAMBRIDGE      CLOUDY    72  68  88 E5        30.11R
SALISBURY      CLOUDY    71  70  96 CALM      30.12R
OCEAN CITY     LGT RAIN  74  70  87 CALM      30.12S
WALLOPS ISLAND CLOUDY    73  72  96 S5        30.12S
ACCOMACK*      CLOUDY    72  72 100 SE5       30.11R
$$

NCZ012>017-030>032-061100-
NORTH CENTRAL AND EASTERN NORTH CAROLINA

CITY           SKY/WX    TMP DP  RH WIND       PRES   REMARKS
ROANOKE RAPIDS CLOUDY    68  68 100 CALM      30.11R
RALEIGH        PTCLDY    71  69  93 SE3       30.10R
ELIZABETH CITY PTCLDY    71  69  93 CALM      30.13R
AHOSKIE*       PTCLDY   N/A N/A N/A CALM      30.12R
EDENTON*       PTCLDY    73  71  93 S5        30.13R
CURRITUCK*     PTCLDY    72  70  92 CALM      30.13S
KILL DEVIL HLS PTCLDY    77  74  90 SW5       30.12S
MANTEO         PTCLDY    77  75  92 SW9       30.13S
CAPE HATTERAS  PTCLDY    76  75  97 SW6       30.15R
TARBORO*         N/A     73  71  94 CALM      30.12R
GOLDSBORO      CLOUDY    74  74  99 SE5       30.10R
WASHINGTON     CLEAR     75  73  93 S3        30.13R
GREENVILLE     CLOUDY    73  73 100 S7        30.13R
NEW BERN       CLEAR     76  74  93 S6        30.14R
WILMINGTON     PTCLDY    77  72  84 S7        30.12R
$$

VAZ048-061100-
ELSEWHERE

CITY           SKY/WX    TMP DP  RH WIND       PRES   REMARKS
HARRISBURG PA  LGT RAIN  70  67  90 CALM      30.12R
BALTIMORE      CLOUDY    73  72  96 E3        30.11R
ANNAPOLIS      CLOUDY    75  71  87 SE12      30.10R
ANDREWS AFB    CLOUDY    73  73 100 E5        30.11R
PHILADELPHIA   CLOUDY    72  68  87 E5        30.14S
HENDERSON NC   PTCLDY    68  66  93 S5        30.11R
GREENSBORO     CLOUDY    71  69  93 SW9       30.08S
ROCKY MOUNT    CLOUDY    72  71  97 CALM      30.11R
$$

VAZ100-061100-
MARINE

STATION/POSITION TIME  TEMP    WIND        PRES    WAVE   SWELL
                       AIR SEA DIR/SP/G            HT/PER HT/PER
                 (UTC) (F)     (DEG/KT/KT) (MB)    (FT/S) (FT/S)
BRANDYWINE LGT   0900   74 73  120/  7/  8 1020.2F
CAPE MAY NJ      0900   73 77  100/  3/  4 1019.8F
LEWES DE         0900   73 74  130/  4/  6 1019.7F
15NM E FENWICK I 0950   75 74              1019.9R   3/ 6
OCEAN-CITY-INLET 0900   75 74  160/  5/  7 1019.7R
WACHAPREAGUE VA  0900   74 81  140/  5/  9 1019.4F
GOOSES REEF MD   1000   75 79  130/ 12/ 14 1020.4R
COVE POINT MD    0900   74     130/ 10/ 11 1019.7F
SOLOMONS ISLAND  0900      81                N/A
BISHOPS HEAD MD  0900   75     130/  8/  9 1019.3R
PINEY POINT MD   0900          150/  9/ 10   N/A
CAMBRIDGE MD     0900   74 80  100/  5/  6 1019.0F
LEWISETTA VA     0900   76 80  160/  7/  8 1018.8R
RAPPAHANNOCK LGT 0900          110/ 10/ 11 1019.6R
STINGRAY PT      1000   77 80  150/ 10/ 10 1019.5R   1
YORK RVR RNG VA  0900   76     140/ 12/ 13 1018.5R
YORKTOWN VA      0900   74 80  150/  5/  6 1018.8R
JAMESTOWN VA     1000   75 82  150/  8/ 10   N/A
DOMINION TERM VA 0900   75     140/  6/  7 1019.1R
KIPTOPEKE VA     0900      82   80/  8/  9   N/A
CHES BAY BRIDGE  0900   75 77   80/  6/  8 1019.0R
CAPE HENRY VA    0900   75      90/  9/ 10   N/A
CHESAPEAKE LGHT  0900   74      40/ 12/ 13 1020.2R
WILLOUBY STN VA  0900   74     110/  6/  7 1020.1R
CAPE HENRY BUOY  0928      78                N/A     2/ 9
1ST LANDING BUOY 1000      76              1019.5R   1/ 3
CAPE CHARLES BUO 0926      77                N/A     2/13   2/13
OFFSHORE WE BUOY 0911      77                N/A     3/ 9   2/ 9
64NM E OF VA BCH 0950   77 77  220/  6/  8 1019.6R   3/ 9   2/ 9
DUCK PIER NC     0900   77 77   30/  4/  5   N/A
44100 DUCK FRF   0924      78                N/A     2/ 9
44056 DUCK FRF   0911      78                N/A     2/ 7
OREGON INLET NC  0900   80 81  230/ 13/ 14 1020.0R
HATTERAS NC      0900   78 79  220/  5/  8 1020.1R
DIAMOND SHLS NC  0950   80 81  240/ 10/ 12 1020.7R   3/ 8   2/ 8
CAPE LOOKOUT NC  1000   79     210/  6/  8 1020.2S
$$


USA.gov is the U.S. government's official web portal to all federal, state and local government web resources and services.